[[{"header":{"parameterUnit":"m.s-1","parameterCategory":1,"la1":30.2991,"la2":30.254,"lo1":-89.0895,"lo2":-89.0444,"dy":0.0017,"dx":0.0017,"nx":28,"ny":28,"refTime":"2024-08-19T03:00:00:Z","depth":0,"parameterNumber":2,"parameterNumberName":"U-component_of_WINDS"},"data":[0,0,0,0,0,0,0,0,0,0,0,0,0,0,0,0,0,0,0,0,0,0,0,0,0,0,0,0,0,0,0,0,0,0,0,0,0,0,0,0,0,0,0,0,0,0,0,0,0,0,0,0,0,0,0,0,0,0,0.9008,0.901,0,0.9165,0.9167,0.9169,0.9272,0.9272,0.9273,0.9274,0.9438,0.9442,0.9445,0,0,0,0,0,0,0,0,0,0,0,0,0,0.88,0.8803,0.9008,0.901,0.9012,0.9165,0.9167,0.9169,0.9272,0.9272,0.9273,0.9274,0.9437,0.9441,0.9446,0,0,0,0,0,0,0,0,0,0,0,0,0,0.8917,0.8804,0.9008,0.9081,0.909,0.9165,0.9167,0.917,0.9271,0.9272,0.9273,0.9274,0.9435,0.9441,0.9446,0.9462,0,0,0.9464,0.9466,0,0,0,0,0,0,0,0,0.891,0.8925,0.9069,0.9076,0.9086,0.92,0.9154,0.9268,0.9271,0.9202,0.9274,0.9275,0.9358,0.937,0.9398,0.9469,0.9476,0.9464,0.9468,0.947,0.9472,0,0,0,0,0,0,0,0.8902,0.8919,0.907,0.9071,0.9081,0.9108,0.9125,0.9176,0.9273,0.9209,0.9216,0.9233,0.9363,0.9392,0.9402,0.9479,0.9464,0.9469,0.9472,0.9475,0.9571,0.957,0,0,0,0,0,0,0.8882,0.8911,0.9065,0.9075,0.8999,0.9111,0.9131,0.9162,0.9273,0.929,0.9232,0.9238,0.9382,0.9396,0.9408,0.9434,0.947,0.9475,0.9478,0.9572,0.9571,0.957,0,0,0,0,0,0,0.8877,0.8895,0.9059,0.8995,0.9018,0.9113,0.9148,0.9165,0.9194,0.9291,0.9309,0.9244,0.9383,0.9401,0.9448,0.9441,0.9478,0.9483,0.9573,0.9572,0.9571,0.9483,0,0,0,0,0,0,0.8871,0.8892,0.8898,0.8995,0.9021,0.9094,0.9148,0.9167,0.9203,0.9211,0.9306,0.9323,0.9385,0.9438,0.9453,0.9449,0.9487,0.9574,0.9572,0.9571,0.9487,0.9479,0.9472,0,0,0,0,0,0.8863,0.8868,0.8898,0.8916,0.903,0.9093,0.9109,0.9179,0.9202,0.9209,0.9272,0.932,0.9439,0.9442,0.946,0.9457,0.9575,0.9573,0.9571,0.949,0.9481,0.9472,0,0,0,0,0,0,0.877,0.8882,0.8916,0.8953,0.9012,0.9111,0.9122,0.9167,0.9222,0.9228,0.9314,0.9335,0.9373,0.942,0.9422,0.9478,0.9513,0.9514,0.9445,0.9437,0.943,0.9417,0.9492,0,0,0,0,0,0.8753,0.8793,0.889,0.8913,0.8941,0.9026,0.9056,0.9105,0.9171,0.9197,0.9263,0.9326,0.9378,0.941,0.9464,0.9495,0.9517,0.9502,0.9494,0.9488,0.9488,0.9508,0.9502,0.9564,0.9564,0.9564,0,0,0.872,0.8786,0.8807,0.8896,0.8948,0.8989,0.9047,0.9088,0.9119,0.9204,0.9252,0.9302,0.9379,0.9417,0.9438,0.9458,0.9476,0.9485,0.9479,0.9483,0.9505,0.9499,0.9494,0.9563,0.9563,0.9563,0,0,0.8679,0.8734,0.8758,0.8809,0.8887,0.8944,0.8949,0.9041,0.9077,0.9126,0.919,0.923,0.9317,0.9369,0.9407,0.9386,0.9433,0.9401,0.9362,0.938,0.9375,0.9372,0.9364,0.936,0.9401,0.9401,0.9401,0,0.8628,0.8691,0.8766,0.8803,0.884,0.8918,0.8944,0.899,0.9082,0.9106,0.9127,0.9238,0.9295,0.9347,0.9342,0.937,0.938,0.939,0.937,0.9367,0.9364,0.9358,0.9355,0.9396,0.9397,0.9397,0.9398,0,0.8625,0.8668,0.8679,0.8763,0.8802,0.8834,0.8914,0.8945,0.899,0.9045,0.9094,0.9165,0.9234,0.925,0.9296,0.9308,0.9318,0.9353,0.939,0.9353,0.9348,0.9346,0.939,0.9392,0.9393,0.9394,0,0,0.853,0.8655,0.8658,0.8697,0.8789,0.8824,0.8859,0.8925,0.895,0.9011,0.9043,0.9115,0.9147,0.919,0.9243,0.9259,0.9237,0.9292,0.9295,0.9279,0.9255,0.9228,0.9223,0.9269,0.9269,0.9269,0.9249,0,0.8503,0.8569,0.8637,0.8679,0.872,0.8794,0.8825,0.8885,0.8937,0.898,0.9039,0.9088,0.9128,0.9154,0.9173,0.9235,0.9234,0.9238,0.93,0.9301,0.9277,0.9221,0.9192,0.917,0.9248,0.9247,0.9247,0,0.848,0.8536,0.8581,0.8669,0.8689,0.8715,0.8781,0.8821,0.8891,0.8928,0.8975,0.903,0.9072,0.9104,0.9163,0.9165,0.9194,0.9229,0.923,0.9238,0.9271,0.9227,0.9165,0.9161,0.9245,0.9245,0.9245,0,0.8406,0.8492,0.8531,0.8562,0.8665,0.8682,0.8726,0.8797,0.8832,0.889,0.8914,0.8977,0.9011,0.9058,0.9129,0.9146,0.9181,0.9219,0.9213,0.9211,0.9216,0.9215,0.9157,0.9236,0.9236,0.9236,0.9236,0,0.8368,0.8393,0.8498,0.8522,0.8552,0.8631,0.8659,0.871,0.8772,0.8808,0.8877,0.8909,0.9001,0.9045,0.9101,0.9141,0.9156,0.9188,0.9202,0.9181,0.9177,0.9201,0.9204,0.9235,0.9236,0.9236,0.9236,0,0.8289,0.8361,0.8408,0.8501,0.8525,0.8543,0.8624,0.865,0.8706,0.875,0.8765,0.8853,0.8908,0.8983,0.9062,0.91,0.9132,0.9156,0.9108,0.9116,0.9105,0.9105,0.906,0.9058,0.9139,0.9138,0.9137,0,0.826,0.8281,0.8376,0.8404,0.8445,0.849,0.8526,0.8605,0.8639,0.872,0.8737,0.8796,0.8848,0.8932,0.9004,0.9064,0.9089,0.9069,0.9099,0.9077,0.9088,0.9086,0.9088,0.9062,0.9061,0.906,0.9059,0,0.8201,0.8235,0.8283,0.8344,0.8384,0.8436,0.8492,0.8511,0.8602,0.8637,0.8693,0.8733,0.8813,0.8871,0.8941,0.8988,0.9038,0.9049,0.9051,0.9029,0.9,0.9015,0.9087,0.905,0.905,0.9051,0.9052,0.9052,0.8146,0.8168,0.8238,0.8289,0.8339,0.8389,0.8418,0.8477,0.8524,0.8594,0.8638,0.8691,0.8762,0.886,0.8905,0.8949,0.8969,0.8972,0.8972,0.8972,0.8964,0.8993,0.8962,0.8962,0.8963,0.8963,0.8963,0,0.809,0.8138,0.8185,0.8259,0.83,0.8343,0.8406,0.8438,0.8483,0.8544,0.8593,0.8657,0.8714,0.879,0.8853,0.8873,0.8898,0.8887,0.8886,0.8896,0.8942,0.8934,0.8866,0.8866,0.8866,0.8866,0.8866,0.8866,0.8065,0.8104,0.8146,0.821,0.826,0.8311,0.8344,0.839,0.8439,0.8507,0.8554,0.8603,0.867,0.8738,0.8792,0.8813,0.8833,0.8814,0.8842,0.8884,0.8893,0.8901,0.8894,0.8818,0.8818,0.8792,0.8792,0.8791]},{"header":{"parameterUnit":"m.s-1","parameterCategory":1,"la1":30.2991,"la2":30.254,"lo1":-89.0895,"lo2":-89.0444,"dy":0.0017,"dx":0.0017,"nx":28,"ny":28,"refTime":"2024-08-19T03:00:00:Z","depth":0,"parameterNumber":3,"parameterNumberName":"V-component_of_WINDS"},"data":[0,0,0,0,0,0,0,0,0,0,0,0,0,0,0,0,0,0,0,0,0,0,0,0,0,0,0,0,0,0,0,0,0,0,0,0,0,0,0,0,0,0,0,0,0,0,0,0,0,0,0,0,0,0,0,0,0,0,0.1442,0.1442,0,0.1408,0.1408,0.1408,0.1303,0.1301,0.1298,0.1296,0.126,0.1261,0.1263,0,0,0,0,0,0,0,0,0,0,0,0,0,0.1412,0.1413,0.1442,0.1442,0.1441,0.1409,0.1408,0.1408,0.1303,0.1301,0.1298,0.1295,0.126,0.1261,0.1263,0,0,0,0,0,0,0,0,0,0,0,0,0,0.1407,0.1414,0.1442,0.1385,0.138,0.1409,0.1408,0.1407,0.1304,0.13,0.1297,0.1294,0.1259,0.1261,0.1263,0.1343,0,0,0.1268,0.1269,0,0,0,0,0,0,0,0,0.1407,0.1408,0.1394,0.1389,0.1383,0.1356,0.1384,0.1386,0.1305,0.1333,0.1296,0.1292,0.1295,0.1294,0.1295,0.1342,0.134,0.1269,0.127,0.127,0.1271,0,0,0,0,0,0,0,0.1408,0.1409,0.1429,0.1394,0.1388,0.136,0.1356,0.1384,0.1334,0.133,0.1322,0.132,0.1291,0.1293,0.1293,0.134,0.1268,0.127,0.1271,0.1272,0.1445,0.1449,0,0,0,0,0,0,0.1417,0.141,0.143,0.1428,0.1387,0.1364,0.1358,0.1369,0.1333,0.1324,0.1323,0.1315,0.1292,0.1291,0.1292,0.1379,0.127,0.1272,0.1273,0.1442,0.1446,0.145,0,0,0,0,0,0,0.1416,0.1419,0.1431,0.1417,0.1416,0.1368,0.138,0.137,0.1372,0.1328,0.1318,0.1335,0.1289,0.1289,0.133,0.1377,0.1273,0.1275,0.1438,0.1443,0.1448,0.1559,0,0,0,0,0,0,0.1416,0.142,0.1451,0.1418,0.1417,0.1472,0.1383,0.1372,0.1375,0.1365,0.1336,0.1328,0.1287,0.1328,0.1332,0.1378,0.1276,0.1433,0.144,0.1446,0.1551,0.1567,0.1582,0,0,0,0,0,0.1415,0.1485,0.1453,0.1456,0.1456,0.1475,0.1474,0.1426,0.138,0.1409,0.138,0.1329,0.1372,0.1333,0.1337,0.1384,0.143,0.1438,0.1446,0.1544,0.1564,0.1581,0,0,0,0,0,0,0.1525,0.148,0.1444,0.1505,0.1495,0.1457,0.1494,0.145,0.1452,0.1442,0.1381,0.1375,0.1424,0.1408,0.1366,0.1457,0.1392,0.1401,0.1465,0.1484,0.1499,0.1501,0.1277,0,0,0,0,0,0.1557,0.1577,0.1536,0.1594,0.159,0.1543,0.155,0.1513,0.15,0.1494,0.1469,0.1457,0.1467,0.1475,0.1482,0.1548,0.1538,0.1582,0.1597,0.161,0.1618,0.1647,0.1665,0.1476,0.1476,0.1476,0,0,0.1622,0.1599,0.1616,0.1615,0.1602,0.1623,0.154,0.1567,0.1581,0.1498,0.1534,0.1515,0.1497,0.155,0.1572,0.1539,0.1668,0.162,0.1631,0.1632,0.1657,0.1675,0.1691,0.1481,0.148,0.1479,0,0,0.175,0.1737,0.1781,0.177,0.1751,0.1719,0.173,0.1698,0.1682,0.1718,0.1655,0.167,0.169,0.1679,0.1676,0.1796,0.1747,0.18,0.1879,0.1909,0.1923,0.1936,0.1975,0.199,0.1808,0.1809,0.1809,0,0.1833,0.1862,0.181,0.1839,0.1838,0.1764,0.1807,0.1799,0.1784,0.1784,0.1747,0.1768,0.1751,0.1798,0.1827,0.1828,0.1836,0.1802,0.1926,0.1938,0.1949,0.1985,0.2001,0.1815,0.1814,0.1814,0.1813,0,0.1963,0.1984,0.2022,0.2008,0.2013,0.2049,0.2,0.201,0.1972,0.1943,0.1978,0.1955,0.1954,0.1963,0.1927,0.2004,0.1983,0.1937,0.187,0.1974,0.2007,0.2021,0.1824,0.1822,0.182,0.1818,0,0,0.216,0.2115,0.2129,0.212,0.2093,0.2107,0.2139,0.2138,0.2146,0.2138,0.216,0.2177,0.2133,0.213,0.2091,0.2118,0.2209,0.2067,0.2066,0.2091,0.2287,0.2319,0.2337,0.2177,0.218,0.2182,0.2287,0,0.2279,0.233,0.2282,0.2342,0.2358,0.2287,0.2313,0.2298,0.2272,0.228,0.2251,0.2262,0.2205,0.2202,0.2225,0.2193,0.2247,0.2185,0.2194,0.2195,0.2198,0.2355,0.239,0.2491,0.23,0.2302,0.2304,0,0.2424,0.2421,0.2482,0.2447,0.2452,0.2477,0.247,0.2481,0.2461,0.2439,0.2434,0.2387,0.2412,0.2348,0.2381,0.234,0.234,0.2325,0.2328,0.2325,0.2254,0.2352,0.2522,0.2536,0.2324,0.2323,0.2321,0,0.2557,0.2568,0.2605,0.26,0.2561,0.258,0.2564,0.2541,0.2542,0.2536,0.2535,0.2533,0.253,0.2528,0.248,0.2439,0.2517,0.245,0.2497,0.2498,0.2515,0.2514,0.2684,0.2521,0.2521,0.2521,0.252,0,0.2693,0.2732,0.2663,0.2686,0.2727,0.267,0.2712,0.2689,0.2668,0.2683,0.2622,0.2637,0.2574,0.2582,0.2545,0.2575,0.2575,0.2556,0.2545,0.256,0.2562,0.2558,0.2548,0.2524,0.2524,0.2523,0.2522,0,0.2848,0.2804,0.2838,0.2798,0.2789,0.282,0.2784,0.2802,0.2771,0.279,0.2791,0.2741,0.2747,0.2699,0.2697,0.2671,0.2717,0.2696,0.2724,0.2715,0.2763,0.2758,0.2934,0.2953,0.2782,0.2783,0.2785,0,0.2936,0.2964,0.2926,0.2931,0.2918,0.2929,0.2928,0.2873,0.2875,0.2853,0.2873,0.2873,0.287,0.2882,0.2844,0.284,0.2816,0.2878,0.2815,0.2827,0.2812,0.281,0.281,0.289,0.2893,0.2894,0.2896,0,0.3095,0.3071,0.3074,0.3068,0.307,0.3063,0.3052,0.3059,0.2999,0.3004,0.3008,0.3006,0.3001,0.3001,0.2989,0.2971,0.2922,0.2916,0.2926,0.294,0.2953,0.2943,0.2756,0.2912,0.291,0.2909,0.2908,0.2908,0.3217,0.3236,0.3212,0.3215,0.3201,0.3191,0.3204,0.3174,0.3177,0.3168,0.3135,0.3145,0.312,0.3099,0.3085,0.309,0.306,0.3076,0.3079,0.3083,0.309,0.2955,0.3089,0.3088,0.3087,0.3087,0.3087,0,0.3369,0.3349,0.3354,0.3339,0.3341,0.3296,0.328,0.3284,0.3293,0.3275,0.3272,0.3275,0.3274,0.3236,0.3229,0.324,0.3217,0.324,0.3237,0.3232,0.3119,0.311,0.3258,0.3258,0.3258,0.3258,0.3258,0.3258,0.3449,0.3479,0.3452,0.3473,0.3452,0.346,0.3454,0.3444,0.3428,0.3434,0.3433,0.3408,0.338,0.337,0.3366,0.3354,0.3353,0.3383,0.3363,0.3258,0.3241,0.3225,0.3215,0.3384,0.3384,0.3475,0.3476,0.3477]}]]